Regional Weather Roundup
Issued by NWS Albany, NY

Home | Current Version | Previous Version | Text Only | Print | Product List | Glossary On
Versions: 1 2 3 4 5 6 7 8 9 10 11 12 13 14 15 16 17 18 19 20 21 22 23 24 25 26 27 28 29 30 31 32 33 34 35 36 37 38 39 40 41 42 43 44 45 46 47 48 49 50
000
ASUS41 KALY 011810
RWRALY

NEW YORK STATE HOURLY WEATHER ROUNDUP
NATIONAL WEATHER SERVICE ALBANY NY
100 PM EST SUN FEB 01 2015

NOTE: "FAIR" INDICATES FEW OR NO CLOUDS BELOW 12,000 FEET WITH NO
SIGNIFICANT WEATHER AND/OR NO OBSTRUCTIONS TO VISIBILITY.

NYZ032-033-038>043-046>054-057>066-NYZ062>081-011900-
EAST


CITY           SKY/WX    TMP DP  RH WIND       PRES   REMARKS
ALBANY         MOSUNNY   24  10  55 NE8       30.15F WCI  15
GLENS FALLS    SUNNY     16   3  56 E12       30.17F WCI   3
POUGHKEEPSIE   CLOUDY    34  19  54 W3        30.13F
NEWBURGH       PTSUNNY   32  21  64 W17       30.14F WCI  21
MONTGOMERY     PTSUNNY   34  18  52 NW12      30.11F WCI  25
WHITE PLAINS   PTSUNNY   32  19  58 W10       30.12F WCI  24
ISLIP          PTSUNNY   35  20  54 N8        30.14F WCI  29
NEW YORK CITY  PTSUNNY   35  18  49 W9        30.16F WCI  28
CENTRAL PARK   PTSUNNY   36  17  46 VRB5      30.18F WCI  32
$$

NYZ005>009-017-018-044>046-055-056-011900-
CENTRAL


CITY           SKY/WX    TMP DP  RH WIND       PRES   REMARKS
FULTON         SUNNY     15   4  61 NW8       30.21F WCI   4
SYRACUSE       MOSUNNY   19   7  59 W7        30.19F WCI  10
ROME           SUNNY     18   4  54 W5        30.20F WCI  11
ELMIRA         CLOUDY    25  19  78 NE8       30.12F WCI  16
BINGHAMTON     CLOUDY    23  17  78 CALM      30.07F
MONTICELLO     PTSUNNY   27  19  74 NW8       30.09F WCI  18
$$

NYZ026>034-041>043-011900-
NORTH


CITY           SKY/WX    TMP DP  RH WIND       PRES   REMARKS
WATERTOWN      SUNNY     10  -4  53 N9        30.27F WCI  -3
FORT DRUM      NOT AVBL
MASSENA        SUNNY      2 -11  54 VRB7      30.31F WCI -11
SARANAC LAKE   SUNNY      7  -7  52 CALM      30.05F
PLATTSBURGH    SUNNY      9  -3  58 NE14      30.23F WCI  -7
$$

NYZ001>004-010>016-019>021-011900-
WEST


CITY           SKY/WX    TMP DP  RH WIND       PRES   REMARKS
NIAGARA FALLS  FLURRIES  19  13  77 NE15      30.16F WCI   5
BUFFALO        LGT SNOW  20  14  77 NE15      30.14F WCI   6
DUNKIRK        LGT SNOW  24  20  84 NE12      30.10F FOG     WCI  13
JAMESTOWN      CLOUDY    25  21  86 SE5       30.02F WCI  19
WELLSVILLE     LGT SNOW  25  20  81 SE3       30.03F
ROCHESTER      LGT SNOW  17  10  74 NE13      30.20F WCI   4
PENN YAN       CLOUDY    19  10  68 VRB6      30.15F WCI  11
$$

             KEY
       WCI = WIND CHILL INDEX
       VSB = VISIBILITY
       HX  = HEAT INDEX
$$


USA.gov is the U.S. government's official web portal to all federal, state and local government web resources and services.